Moline, IL

4:57 PM CDT on June 24, 2017 (GMT -0500)
Quad-City International

Weather History for KMLI - October, 2010

Change the Weather History Date:

Friday, October 29, 2010

  Actual Average Record
Temperature  
Mean Temperature 42 °F 49 °F  
Max Temperature 55 °F 59 °F 84 °F (1937)
Min Temperature 28 °F 39 °F 12 °F (1925)
Degree Days  
Heating Degree Days 23 17  
Month to date heating degree days 251 344  
Since 1 July heating degree days 300 448  
Cooling Degree Days 0 0  
Month to date cooling degree days 12 11  
Year to date cooling degree days 1285 1000  
Moisture  
Dew Point 28 °F    
Average Humidity 64    
Maximum Humidity 92    
Minimum Humidity 35    
Precipitation  
Precipitation 0.00 in 0.10 in 1.17 in (1961)
Month to date precipitation 2.34 2.77  
Year to date precipitation 42.17 33.02  
Snow  
Snow 0.00 in 0.00 in - ()
Month to date snowfall 0.0 0.0  
Since 1 July snowfall 0.0 0.0  
Since 1 September snowfall 0.0 0.0  
Snow Depth 0.00 in    
Sea Level Pressure  
Sea Level Pressure 30.28 in    
Wind  
Wind Speed 7 mph (SW)    
Max Wind Speed 15 mph    
Max Gust Speed 23 mph    
Visibility 10 miles    
Events      
T = Trace of Precipitation, MM = Missing Value Source: NWS Daily Summary

Daily Weather History Graph

Daily Weather History Graph

Search for Another Location

Airport or City:

Trip Planner

Search our weather history database for the weather conditions in past years. The results will help you decide how hot, cold, wet, or windy it might be!

Date:

Astronomy

Oct. 29, 2010 Rise Set
Actual Time 7:30 AM CDT 6:00 PM CDT
Civil Twilight 7:01 AM CDT 6:29 PM CDT
Nautical Twilight 6:28 AM CDT 7:01 PM CDT
Astronomical Twilight 5:56 AM CDT 7:34 PM CDT
Moon 11:41 PM CDT (10/29) 1:32 PM CDT (10/29)
Length of Visible Light 11h 27m
Length of Day
10h 30m
Waning Gibbous, 59% of the Moon is Illuminated
Oct 29
Waning Gibbous
Oct 30
Last Quarter
Nov 5
New
Nov 13
First Quarter
Nov 21
Full

Hourly Weather History & Observations

Time (CDT) Temp. Windchill Dew Point Humidity Pressure Visibility Wind Dir Wind Speed Gust Speed Precip Events Conditions
12:52 AM 35.1 °F 30.1 °F 27.0 °F 72% 30.39 in 10.0 mi WNW 5.8 mph - N/A   Clear
1:52 AM 34.0 °F 28.8 °F 27.0 °F 75% 30.38 in 10.0 mi WNW 5.8 mph - N/A   Clear
2:52 AM 33.1 °F 27.7 °F 27.0 °F 78% 30.40 in 10.0 mi West 5.8 mph - N/A   Clear
3:52 AM 33.1 °F 27.7 °F 26.1 °F 75% 30.40 in 10.0 mi WNW 5.8 mph - N/A   Clear
4:52 AM 32.0 °F 25.6 °F 26.1 °F 79% 30.40 in 10.0 mi WNW 6.9 mph - N/A   Clear
5:52 AM 32.0 °F 28.7 °F 26.1 °F 79% 30.40 in 10.0 mi WNW 3.5 mph - N/A   Clear
6:52 AM 28.9 °F - 26.1 °F 89% 30.40 in 10.0 mi Calm Calm - N/A   Clear
7:52 AM 30.0 °F - 26.1 °F 85% 30.41 in 9.0 mi Calm Calm - N/A   Clear
8:52 AM 32.0 °F - 28.0 °F 85% 30.40 in 9.0 mi Calm Calm - N/A   Clear
9:52 AM 37.0 °F - 28.9 °F 73% 30.40 in 10.0 mi Calm Calm - N/A   Clear
10:52 AM 41.0 °F 36.4 °F 30.9 °F 67% 30.39 in 10.0 mi SW 6.9 mph - N/A   Clear
11:52 AM 44.1 °F 40.8 °F 30.0 °F 58% 30.36 in 10.0 mi SW 5.8 mph - N/A   Clear
12:52 PM 48.9 °F - 28.0 °F 44% 30.32 in 10.0 mi South 3.5 mph - N/A   Clear
1:52 PM 51.1 °F - 28.9 °F 43% 30.28 in 10.0 mi SW 8.1 mph - N/A   Clear
2:52 PM 53.1 °F - 28.0 °F 38% 30.25 in 10.0 mi SW 9.2 mph - N/A   Clear
3:52 PM 53.1 °F - 28.0 °F 38% 30.20 in 10.0 mi South 6.9 mph - N/A   Clear
4:52 PM 55.0 °F - 28.0 °F 35% 30.18 in 10.0 mi South 8.1 mph - N/A   Clear
5:52 PM 53.1 °F - 28.9 °F 40% 30.17 in 10.0 mi South 4.6 mph - N/A   Clear
6:52 PM 50.0 °F - 30.0 °F 46% 30.14 in 10.0 mi South 9.2 mph - N/A   Clear
7:52 PM 50.0 °F - 30.0 °F 46% 30.11 in 10.0 mi South 12.7 mph 20.7 mph N/A   Clear
8:52 PM 48.0 °F - 30.9 °F 52% 30.09 in 10.0 mi South 11.5 mph - N/A   Clear
9:52 PM 46.9 °F - 30.9 °F 54% 30.07 in 10.0 mi South 10.4 mph - N/A   Clear
10:52 PM 48.0 °F - 30.0 °F 50% 30.06 in 10.0 mi SSW 10.4 mph 16.1 mph N/A   Clear
11:52 PM 48.0 °F - 30.0 °F 50% 30.04 in 10.0 mi SSW 11.5 mph 19.6 mph N/A   Clear